Zurück zum Katalog

CAPELLA-17

ACADIA

AktivWissenschaftSSO
NORAD 64583·PAYLOAD·🇺🇸 United States

Gestartet Jun 23, 2025 von Vandenberg Space Force Base

Loading…

Nächste Überflüge (nächste 24 Stunden)

TLE

AktuellSource: Space-Track

Epoche: Sep 13, 2026, 06:34 UTC

1 64583U 25135BH  26256.27392435  .00004921  00000-0  48824-3 0  9993
2 64583  97.7756   8.6486 0006311  69.7493 290.4403 14.92199544 66989

Verfolge CAPELLA-17 in Echtzeit mit AllMySat

Download on the App Store